Retour au catalogue

NOAA 8

ActifMétéoSSO
NORAD 13923·PAYLOAD·🇺🇸 United States

Lancé Mar 28, 1983 depuis Vandenberg Space Force Base

Loading…

Prochains Passages (prochaines 24 heures)

TLE

FraisSource: Space-Track

Époque: Sep 14, 2026, 00:14 UTC

1 13923U 83022A   26257.00986398  .00000070  00000-0  44691-4 0  9993
2 13923  98.7329 270.3768 0014784   3.4362 356.6919 14.29821475263769

Suivez NOAA 8 en temps réel avec AllMySat

Download on the App Store